DW5891 Weather Reports


time (UTC)temp
C
wind
direction
speed
KPH
gust
KPH
rain 1hr
cm
rain 24hr
cm
rain mn
cm
humidity
%
barometer
mb
20260906214536 27 320 9.7 0.0 0.00 0.00 0.00 62 997.8
20260906213034 27 306 8.0 0.0 0.00 0.00 0.00 64 997.9
20260906211528 27 36 4.8 0.0 0.00 0.00 0.00 66 998.3
20260906204523 26 39 6.4 0.0 0.00 0.00 0.00 70 998.9
20260906203018 25 24 8.0 0.0 0.00 0.00 0.00 73 999.3
20260906201515 24 34 8.0 0.0 0.00 0.00 0.00 76 999.5
20260906200012 23 281 11.3 0.0 0.00 0.00 0.00 80 999.5
20260906194510 23 5 14.5 0.0 0.00 0.00 0.00 81 999.5
20260906193009 23 296 11.3 0.0 0.00 0.00 0.00 82 999.8
20260906191509 23 289 12.9 0.0 0.00 0.00 0.00 82 1000.0
20260906190006 22 332 9.7 0.0 0.00 0.00 0.00 84 1000.2
20260906184503 22 263 3.2 0.0 0.00 0.00 0.00 85 1000.4
20260906183002 22 319 3.2 0.0 0.00 0.00 0.00 86 1000.4
20260906181600 21 225 6.4 0.0 0.00 0.00 0.00 87 1000.6
20260906180057 21 246 3.2 0.0 0.00 0.00 0.00 89 1000.6
20260906174555 21 238 6.4 0.0 0.00 0.00 0.00 90 1000.7
20260906173154 21 276 6.4 0.0 0.00 0.00 0.00 90 1000.7
20260906171555 20 335 8.0 0.0 0.00 0.00 0.00 92 1000.5
20260906170055 20 10 9.7 0.0 0.00 0.00 0.00 93 1000.4
20260906164551 20 346 9.7 0.0 0.00 0.00 0.00 94 1000.5
20260906163051 20 332 9.7 0.0 0.00 0.00 0.00 95 1000.7
20260906161550 19 346 9.7 0.0 0.00 0.00 0.00 96 1000.6
20260906160105 19 9 11.3 0.0 0.00 0.00 0.00 96 1000.4
20260906154557 19 19 6.4 0.0 0.00 0.00 0.00 96 1000.3
20260906153048 18 14 8.0 0.0 0.00 0.00 0.00 96 1000.3
20260906151549 18 24 8.0 0.0 0.00 0.00 0.00 96 999.8
20260906150056 18 13 6.4 0.0 0.00 0.00 0.00 95 999.9
20260906144546 18 27 6.4 0.0 0.00 0.00 0.00 95 1000.3
20260906143046 18 16 11.3 0.0 0.00 0.00 0.00 95 1000.3
20260906141548 18 5 3.2 0.0 0.00 0.00 0.00 95 1000.6
20260906140045 18 61 3.2 0.0 0.00 0.00 0.00 95 1000.6
20260906134555 18 101 0.0 0.0 0.00 0.00 0.00 95 1000.6
20260906133106 18 109 8.0 0.0 0.00 0.00 0.00 96 1000.6
20260906131543 18 29 9.7 0.0 0.00 0.00 0.00 95 999.9
20260906130042 18 332 22.5 0.0 0.00 0.00 0.00 95 999.6
20260906124538 18 346 9.7 0.0 0.00 0.00 0.00 95 999.8
20260906123038 18 17 1.6 0.0 0.00 0.00 0.00 95 1001.5
20260906121537 18 17 1.6 0.0 0.00 0.00 0.00 95 1002.1
20260906120036 18 12 4.8 0.0 0.00 0.00 0.00 95 1001.7
20260906114533 18 345 12.9 0.0 0.00 0.00 0.00 95 1000.9
20260906113032 18 300 8.0 0.0 0.00 0.00 0.00 95 1001.0
20260906111537 18 310 9.7 0.0 0.00 0.00 0.00 95 1001.1
20260906110034 17 275 3.2 0.0 0.00 0.00 0.00 94 1001.3
20260906104537 17 331 4.8 0.0 0.00 0.00 0.00 94 1001.1
20260906103034 17 279 4.8 0.0 0.00 0.00 0.00 95 1001.2
20260906101532 17 236 6.4 0.0 0.00 0.00 0.00 94 1001.3
20260906100029 17 53 1.6 0.0 0.00 0.00 0.00 94 1000.8
20260906094527 17 69 0.0 0.0 0.00 0.00 0.00 94 1000.5
20260906093029 17 328 0.0 0.0 0.00 0.00 0.00 93 1000.3
20260906091525 17 328 1.6 0.0 0.00 0.00 0.00 93 1000.4
20260906090026 17 328 1.6 0.0 0.00 0.00 0.00 93 1000.4
20260906084518 17 328 4.8 0.0 0.00 0.00 0.00 92 1000.3
20260906083015 18 360 3.2 0.0 0.00 0.00 0.00 92 1000.3
20260906081513 18 30 3.2 0.0 0.00 0.00 0.00 92 1000.6
20260906080013 18 22 3.2 0.0 0.00 0.00 0.00 91 1000.8
20260906074509 18 24 1.6 0.0 0.00 0.00 0.00 91 1000.9
20260906073017 18 28 0.0 0.0 0.00 0.00 0.00 90 1001.0
20260906071506 19 29 1.6 0.0 0.00 0.00 0.00 89 1000.9
20260906070005 19 29 0.0 0.0 0.00 0.00 0.00 89 1001.0
20260906064503 20 13 0.0 0.0 0.00 0.00 0.00 88 1001.0
20260906063003 20 5 4.8 0.0 0.00 0.00 0.00 88 1000.9
20260906061600 20 17 4.8 0.0 0.00 0.00 0.00 88 1001.0
20260906060058 20 26 4.8 0.0 0.00 0.00 0.00 87 1001.1
20260906054606 20 5 8.0 0.0 0.00 0.00 0.00 87 1001.2
20260906053056 20 346 8.0 0.0 0.00 0.00 0.00 85 1001.3
20260906051556 21 5 8.0 0.0 0.00 0.00 0.00 85 1001.4
20260906050119 21 299 4.8 0.0 0.00 0.00 0.00 84 1001.6
20260906044554 21 329 3.2 0.0 0.00 0.00 0.00 84 1001.5
20260906043057 21 317 3.2 0.0 0.00 0.00 0.00 83 1001.4
20260906041554 21 325 1.6 0.0 0.00 0.00 0.00 81 1001.5
20260906034553 22 5 3.2 0.0 0.00 0.00 0.00 79 1001.7
20260906033103 22 340 4.8 0.0 0.00 0.00 0.00 78 1001.6
20260906031551 22 15 4.8 0.0 0.00 0.00 0.00 79 1001.7
20260906030050 22 346 1.6 0.0 0.00 0.00 0.00 78 1001.5
20260906024550 22 360 3.2 0.0 0.00 0.00 0.00 77 1001.4
20260906023047 22 5 1.6 0.0 0.00 0.00 0.00 76 1001.3
20260906021551 23 5 1.6 0.0 0.00 0.00 0.00 74 1001.1
20260906020051 23 5 1.6 0.0 0.00 0.00 0.00 72 1000.8
20260906014553 24 9 4.8 0.0 0.00 0.00 0.00 71 1000.7
20260906013041 25 17 6.4 0.0 0.00 0.00 0.00 69 1000.5
20260906011539 25 15 9.7 0.0 0.00 0.00 0.00 68 1000.3
20260906010037 26 5 12.9 0.0 0.00 0.00 0.00 66 999.9
20260906004538 27 19 12.9 0.0 0.00 0.00 0.00 64 999.7
20260906003036 27 5 12.9 0.0 0.00 0.00 0.00 63 999.6
20260906001535 28 13 11.3 0.0 0.00 0.00 0.00 62 999.4
20260906000040 28 5 11.3 0.0 0.00 0.00 0.00 62 999.4
20260905234533 28 5 14.5 0.0 0.00 0.00 0.00 61 999.2
20260905233039 29 5 12.9 0.0 0.00 0.00 0.00 60 999.0
20260905231540 29 325 12.9 0.0 0.00 0.00 0.00 59 998.9
20260905230036 29 324 9.7 0.0 0.00 0.00 0.00 58 998.9
20260905224531 29 345 11.3 0.0 0.00 0.00 0.00 59 998.9
20260905223031 28 343 11.3 0.0 0.00 0.00 0.00 59 999.1
20260905221533 28 331 11.3 0.0 0.00 0.00 0.00 58 999.1
20260905220029 28 275 11.3 0.0 0.00 0.00 0.00 58 999.2